Flag for Canada Weather past 2 weeks in Hamilton, Ontario, Canada

Now
63 °F

Clear.


Feels Like: 63 °F
Forecast: 62 / 76 °F
Wind: No wind

Location: Hamilton Airport

Current Time: Aug 2, 2014 at 5:22:07 AM

Latest Report: Aug 2, 2014 at 4:00 AM


Visibility: 12 mi

Pressure: 30.11 "Hg

Humidity: 88%

Dew point: 59 °F

Location of HamiltonLocation

Historic Weather in Hamilton — Graph

°F

Hamilton temperature yesterday

Maximum temperature yesterday: 79 °F (at 2:00 PM)
Minimum temperature yesterday: 59 °F (at 4:00 AM)
Average temperature yesterday: 68 °F

Past Weeks' High & Low Weather Summary

 TemperatureHumidityPressure
High82 °F (Jul 21, 4:00 PM)100% (Jul 19, 4:49 PM)30.25 "Hg (Jul 19, 4:49 PM)
Low50 °F (Jul 18, 4:00 AM)38% (Jul 25, 1:00 PM)29.57 "Hg (Jul 27, 9:00 PM)
Average66 °F77%29.99 "Hg
* Reported Jul 18 4:00 AM — Aug 2 4:00 AM, Hamilton, Weather by CustomWeather, © 2014

Note: Actual official high and low records may vary slightly from our data, if they occured in-between our weather recording intervals... More about our weather records

Advertising

Hamilton weather history for previous 24 hours

 ConditionsComfort  
Time TempWeatherWind HumidityBarometerVisibility
4:00 AM
Aug 2
63 °FClear.No wind88%30.11 "Hg12 mi
3:00 AM64 °FPassing clouds.3 mph88%30.10 "Hg15 mi
2:00 AM64 °FPassing clouds.5 mph83%30.11 "Hg15 mi
1:00 AM61 °FPassing clouds.7 mph88%30.12 "Hg15 mi
12:00 AM63 °FClear.5 mph83%30.11 "Hg15 mi
11:00 PM
Aug 1
63 °FPassing clouds.6 mph83%30.12 "Hg15 mi
10:00 PM63 °FPassing clouds.7 mph83%30.12 "Hg15 mi
9:00 PM64 °FPartly sunny.9 mph83%30.12 "Hg15 mi
8:00 PM70 °FScattered clouds.8 mph73%30.11 "Hg15 mi
7:00 PM77 °FPartly sunny.6 mph61%30.09 "Hg7 mi
6:00 PM77 °FPartly sunny.12 mph61%30.09 "Hg7 mi
5:00 PM79 °FScattered clouds.13 mph61%30.08 "Hg8 mi
4:00 PM79 °FPartly sunny.15 mph65%30.09 "Hg10 mi
3:00 PM77 °FPartly sunny.12 mph65%30.10 "Hg12 mi
2:00 PM79 °FBroken clouds.12 mph58%30.10 "Hg15 mi
1:00 PM77 °FPassing clouds.7 mph61%30.11 "Hg15 mi
12:00 PM77 °FPassing clouds.9 mph61%30.11 "Hg15 mi
11:00 AM73 °FPassing clouds.9 mph74%30.11 "Hg15 mi
10:00 AM72 °FPassing clouds.5 mph78%30.11 "Hg15 mi
9:00 AM66 °FPassing clouds.6 mph88%30.11 "Hg15 mi
8:00 AM63 °FSunny.6 mph100%30.10 "Hg15 mi
7:00 AM59 °FClear.3 mph100%30.08 "Hg15 mi
6:00 AM61 °FPassing clouds.6 mph94%30.06 "Hg15 mi
5:00 AM59 °FClear.3 mph94%30.06 "Hg15 mi
Weather by CustomWeather, © 2014

See weather overviewHow to use our weather pages